Minneapolis, MN

12:29 PM CDT on June 24, 2018 (GMT -0500)
Minneapolis-Saint Paul International

Weather History for KMSP - August, 2007

Change the Weather History Date:

Tuesday, August 7, 2007

  Actual Average Record
Temperature  
Mean Temperature 83 °F 72 °F  
Max Temperature 93 °F 82 °F 98 °F (2001)
Min Temperature 73 °F 63 °F 45 °F (1972)
Degree Days  
Heating Degree Days 0 0  
Month to date heating degree days 0 0  
Since 1 June heating degree days 49  
Since 1 July heating degree days 0 5  
Cooling Degree Days 18 8  
Month to date cooling degree days 74 56  
Year to date cooling degree days 768 532  
Since 1 June cooling degree days 490  
Growing Degree Days 32 (Base 50)    
Moisture  
Dew Point 65 °F    
Average Humidity 58    
Maximum Humidity 87    
Minimum Humidity 28    
Precipitation  
Precipitation 0.00 in 0.15 in 2.29 in (1984)
Month to date precipitation 0.15 1.05  
Year to date precipitation 13.91 18.92  
Snow  
Snow 0.00 in 0.00 in 0.00 in ()
Month to date snowfall 0.0 0.0  
Since 1 June snowfall 0.0  
Since 1 July snowfall 0.0 0.0  
Snow Depth 0.00 in    
Sea Level Pressure  
Sea Level Pressure 29.74 in    
Wind  
Wind Speed 7 mph (West)    
Max Wind Speed 17 mph    
Max Gust Speed 24 mph    
Visibility 8 miles    
Events      
T = Trace of Precipitation, MM = Missing Value Source: NWS Daily Summary

Daily Weather History Graph

Daily Weather History Graph

Search for Another Location

Airport or City:

Astronomy

Aug. 07, 2007 Rise Set
Actual Time 6:05 AM CDT 8:31 PM CDT
Civil Twilight 5:32 AM CDT 9:04 PM CDT
Nautical Twilight 4:51 AM CDT 9:45 PM CDT
Astronomical Twilight 4:04 AM CDT 10:31 PM CDT
Moon 12:12 AM CDT (8/7) 4:48 PM CDT (8/7)
Length of Visible Light 15h 32m
Length of Day
14h 26m
Waning Crescent, 30% of the Moon is Illuminated
Aug 7
Waning Crescent
Aug 12
New
Aug 20
First Quarter
Aug 28
Full
Sep 3
Last Quarter

Hourly Weather History & Observations

Time (CDT) Temp. Heat Index Dew Point Humidity Pressure Visibility Wind Dir Wind Speed Gust Speed Precip Events Conditions
12:53 AM 77.0 °F - 68.0 °F 74% 29.70 in 8.0 mi NNE 3.5 mph - N/A   Overcast
1:23 AM 75.2 °F - 68.0 °F 78% 29.72 in 8.0 mi East 3.5 mph - N/A   Overcast
1:53 AM 75.0 °F - 68.0 °F 79% 29.71 in 8.0 mi ESE 4.6 mph - N/A   Mostly Cloudy
2:33 AM 75.2 °F - 68.0 °F 78% 29.73 in 7.0 mi Calm Calm - N/A   Mostly Cloudy
2:53 AM 75.0 °F - 68.0 °F 79% 29.71 in 7.0 mi Calm Calm - N/A   Overcast
3:53 AM 75.0 °F - 68.0 °F 79% 29.70 in 7.0 mi Calm Calm - N/A   Overcast
4:06 AM 75.2 °F - 68.0 °F 78% 29.71 in 7.0 mi Calm Calm - N/A   Mostly Cloudy
4:36 AM 73.4 °F - 68.0 °F 83% 29.71 in 6.0 mi SE 3.5 mph - N/A   Haze
4:53 AM 73.9 °F - 69.1 °F 85% 29.71 in 6.0 mi Calm Calm - N/A   Haze
5:53 AM 75.0 °F - 69.1 °F 82% 29.72 in 6.0 mi SW 3.5 mph - N/A   Haze
6:11 AM 75.2 °F - 69.8 °F 83% 29.74 in 6.0 mi West 3.5 mph - N/A   Haze
6:30 AM 75.2 °F - 69.8 °F 83% 29.76 in 7.0 mi West 3.5 mph - N/A   Overcast
6:53 AM 75.0 °F - 70.0 °F 84% 29.75 in 5.0 mi West 4.6 mph - N/A   Haze
7:53 AM 75.0 °F - 70.0 °F 84% 29.74 in 6.0 mi SW 5.8 mph - N/A   Haze
8:43 AM 75.2 °F - 69.8 °F 83% 29.76 in 6.0 mi WSW 5.8 mph - N/A   Haze
8:53 AM 75.9 °F - 69.1 °F 79% 29.75 in 7.0 mi West 5.8 mph - N/A   Overcast
9:11 AM 75.2 °F - 69.8 °F 83% 29.76 in 7.0 mi WSW 5.8 mph - N/A   Mostly Cloudy
9:53 AM 78.1 °F - 70.0 °F 76% 29.75 in 8.0 mi WSW 5.8 mph - N/A   Overcast
10:31 AM 80.6 °F 83.9 °F 69.8 °F 70% 29.76 in 9.0 mi Variable 4.6 mph - N/A   Mostly Cloudy
10:53 AM 82.0 °F 85.9 °F 70.0 °F 67% 29.74 in 9.0 mi WNW 5.8 mph - N/A   Mostly Cloudy
11:53 AM 84.9 °F 88.2 °F 68.0 °F 57% 29.73 in 10.0 mi West 9.2 mph - N/A   Mostly Cloudy
12:53 PM 87.1 °F 88.9 °F 64.9 °F 48% 29.73 in 10.0 mi West 12.7 mph 18.4 mph N/A   Scattered Clouds
1:53 PM 90.0 °F 91.3 °F 64.0 °F 42% 29.73 in 10.0 mi West 10.4 mph - N/A   Scattered Clouds
2:53 PM 91.0 °F 90.0 °F 57.9 °F 33% 29.73 in 10.0 mi WSW 10.4 mph 20.7 mph N/A   Scattered Clouds
3:53 PM 91.0 °F 89.7 °F 57.0 °F 32% 29.75 in 10.0 mi WSW 13.8 mph - N/A   Partly Cloudy
4:53 PM 91.0 °F 88.9 °F 55.0 °F 29% 29.75 in 10.0 mi WNW 11.5 mph - N/A   Scattered Clouds
5:53 PM 91.0 °F 88.7 °F 54.0 °F 28% 29.76 in 10.0 mi WNW 9.2 mph - N/A   Scattered Clouds
6:53 PM 88.0 °F - 51.1 °F 28% 29.76 in 10.0 mi WNW 9.2 mph - N/A   Scattered Clouds
7:53 PM 84.9 °F 83.2 °F 53.1 °F 33% 29.75 in 10.0 mi WNW 8.1 mph - N/A   Scattered Clouds
8:53 PM 82.0 °F 82.0 °F 57.9 °F 44% 29.76 in 10.0 mi West 6.9 mph - N/A   Scattered Clouds
9:53 PM 79.0 °F - 57.9 °F 48% 29.81 in 10.0 mi WNW 3.5 mph - N/A   Partly Cloudy
10:53 PM 77.0 °F - 55.9 °F 48% 29.84 in 10.0 mi NNE 4.6 mph - N/A   Partly Cloudy
11:53 PM 73.9 °F - 55.9 °F 53% 29.83 in 10.0 mi North 6.9 mph - N/A   Mostly Cloudy